EST,Max TemperatureF,Mean TemperatureF,Min TemperatureF,Max Dew PointF,MeanDew PointF,Min DewpointF,Max Humidity, Mean Humidity, Min Humidity, Max Sea Level PressureIn, Mean Sea Level PressureIn, Min Sea Level PressureIn, Max VisibilityMiles, Mean VisibilityMiles, Min VisibilityMiles, Max Wind SpeedMPH, Mean Wind SpeedMPH, Max Gust SpeedMPH,PrecipitationIn, CloudCover, Events, WindDirDegrees
2013-2-1,70,56,43,42,32,23,68,46,18,30.38,30.31,30.26,10,10,10,13,6,18,0.00,0,,340
2013-2-2,70,54,39,42,35,24,79,50,20,30.35,30.26,30.17,10,10,10,9,4,,0.00,0,,344
2013-2-3,70,58,45,49,40,32,80,57,29,30.21,30.15,30.08,10,10,10,14,6,20,0.00,0,,306
2013-2-4,66,56,46,44,39,30,93,56,25,30.16,30.11,30.07,10,10,10,7,4,,0.00,0,,322
2013-2-5,75,60,44,56,45,39,93,61,35,30.13,30.07,30.02,10,10,10,9,3,,0.00,1,,319
2013-2-6,75,66,57,61,57,53,87,71,51,30.14,30.10,30.06,10,10,10,10,3,,0.00,7,,62
2013-2-7,81,72,63,64,61,59,93,72,49,30.10,29.99,29.88,10,10,10,15,6,25,0.00,3,Rain,177
2013-2-8,78,68,57,65,59,54,94,77,46,30.11,29.99,29.90,10,10,8,13,10,17,0.00,2,,294
2013-2-9,75,64,52,55,51,50,93,72,43,30.24,30.18,30.10,10,10,9,12,6,16,0.00,0,,40
2013-2-10,78,68,57,59,55,52,83,65,42,30.30,30.23,30.18,10,10,10,14,8,20,0.00,1,,115
2013-2-11,84,72,61,63,60,58,93,70,41,30.24,30.16,30.09,10,10,9,14,6,17,0.00,1,,172
2013-2-12,84,74,64,67,63,60,97,74,44,30.12,30.03,29.95,10,9,6,12,7,20,0.00,1,,207
2013-2-13,82,73,64,70,66,59,94,85,58,29.99,29.92,29.86,10,8,2,15,10,26,0.22,7,Rain,244
2013-2-14,66,60,54,61,56,53,97,88,70,30.08,30.02,29.96,10,9,5,12,6,,0.29,7,Rain,5
2013-2-15,68,59,50,52,49,46,96,81,47,30.11,30.04,29.98,10,9,6,9,6,,0.01,5,,4
2013-2-16,66,58,48,50,41,22,93,62,36,30.17,30.00,29.95,10,10,10,22,7,31,0.00,1,,305
2013-2-17,54,46,37,31,17,9,67,35,17,30.38,30.29,30.19,10,10,10,16,10,23,0.00,0,,341
2013-2-18,68,51,34,47,34,20,79,52,26,30.41,30.33,30.25,10,10,10,13,6,16,0.00,1,,87
2013-2-19,78,64,50,59,52,46,86,66,40,30.25,30.16,30.08,10,10,10,15,4,21,0.00,1,,221
2013-2-20,72,64,55,61,54,45,94,73,47,30.17,30.11,30.06,10,10,10,9,4,,0.00,4,,21
2013-2-21,81,67,53,63,56,50,90,72,47,30.14,30.08,30.01,10,10,10,10,3,,0.00,2,,73
2013-2-22,86,74,62,69,64,60,100,80,43,30.10,30.05,30.00,10,7,2,12,4,,0.00,0,,142
2013-2-23,86,77,68,68,65,61,94,75,44,30.02,29.97,29.89,10,10,4,17,7,28,0.00,4,,211
2013-2-24,77,72,66,70,67,62,96,87,69,29.99,29.95,29.90,10,7,1,10,6,,0.10,6,Rain,222
2013-2-25,86,75,64,69,65,62,97,82,46,29.95,29.86,29.79,10,10,7,10,5,18,0.00,3,,117
2013-2-26,75,70,64,72,66,58,96,84,59,29.88,29.81,29.74,10,7,2,21,9,31,0.49,5,Rain,223
2013-2-27,73,65,55,61,52,47,90,67,39,30.00,29.95,29.89,10,10,9,15,8,21,0.00,1,,299
2013-2-28,72,62,53,51,48,43,90,65,35,30.02,29.97,29.91,10,10,6,16,7,24,0.00,1,,285